| Station | Date | Time | Temp (°F) | RH (%) | Dew Pt (°F) | Wind Spd (mph) | Wind Dir (°) | Wind Gust (mph) | Latest Rain (In) | Daily Rain (In) | Daily Max Temp (°F) | Daily Min Temp (°F) |
|---|---|---|---|---|---|---|---|---|---|---|---|---|
| Bavarian Lion EFW | 5/5/26 | 0300 | 52.4 2.8 | - | - | - | - | - | 0.00 | 0.01 | 52.8 2.0 | 52.3 3.0 |
| Rockpile Lower (Cooley) | 5/5/26 | 0245 | 49.0 1.5 | 91 5 | 46.4 0.1 | 5.6 4.3 | W | 277 | 9.7 6.1 | 0.00 | 0.00 | 49.5 1.9 | 48.8 1.6 |
| Rockpile Upper (Cooley) | 5/5/26 | 0300 | 45.5 1.3 | 100 6 | 45.5 0.4 | 9.0 6.6 | NW | 326 | 17.3 12.1 | 0.00 | 0.00 | 46.1 1.5 | 45.3 1.3 |
| Lower Dry Creek Valley | 5/5/26 | 0300 | 52.8 0.2 | 100 12 | 52.8 3.6 | 0.4 0.0 | SE | 146 | 2.2 2.5 | 0.00 | 0.01 | 54.0 0.8 | 52.7 0.3 |
| Geyserville-South (Nervo Station) | 5/5/26 | 0300 | 52.1 0.3 | - | - | 1.6 0.2 | W | 277 | 5.4 2.0 | 0.00 | 0.00 | 52.9 1.2 | 51.7 0.2 |
| Franz Valley (Stornetta) | 5/5/26 | 0300 | 51.6 4.2 | 95 0 | 50.3 4.3 | 2.3 2.1 | ESE | 118 | 4.2 3.3 | 0.00 | 0.05 | 52.2 2.7 | 51.6 4.7 |
| Geyserville (Ranch 3) | 5/5/26 | 0300 | 52.7 0.0 | 100 13 | 52.6 3.6 | 2.7 2.0 | WNW | 291 | 5.2 3.7 | 0.00 | 0.00 | 53.7 1.6 | 52.6 0.2 |
| Geyserville-North (Hoffman) | 5/5/26 | 0300 | 52.4 0.4 | 92 6 | 50.2 1.5 | 2.1 0.8 | WNW | 285 | 4.5 1.9 | 0.00 | 0.00 | 53.4 1.9 | 52.3 0.0 |
| Knights Valley (Bavarian Lion) | 5/5/26 | 0300 | 52.0 2.0 | 92 1 | 49.8 2.3 | 1.8 0.2 | S | 174 | 5.3 2.1 | 0.00 | 0.01 | 52.1 0.4 | 51.6 2.1 |
| HWY 128/Chalk Hill Rd (Landslide) | 5/5/26 | 0300 | 52.6 0.6 | 96 11 | 51.6 2.7 | 1.0 0.8 | SSE | 164 | 3.1 1.6 | 0.00 | 0.02 | 53.1 1.2 | 52.5 0.7 |
| Newman Knights Valley | 5/5/26 | 0300 | 53.0 0.9 | 86 2 | 48.9 1.6 | 1.9 0.9 | SE | 141 | 5.2 2.6 | 0.00 | 0.01 | 53.2 0.6 | 52.9 0.8 |
| Jimtown-North (Piccolo Ranch 15) | 5/5/26 | 0300 | 52.3 0.5 | 100 19 | 52.3 5.3 | 0.5 0.3 | SW | 232 | 2.6 1.3 | 0.00 | 0.00 | 53.8 0.9 | 52.1 0.3 |
| Peterson (Ranch 09) | 5/5/26 | 0300 | 52.3 0.4 | 91 4 | 49.6 1.6 | 1.6 0.4 | NE | 38 | 3.2 0.7 | 0.00 | 0.00 | 53.4 0.8 | 52.2 0.8 |
| Cloverdale-SE (Ranch 38) | 5/5/26 | 0300 | 50.8 1.4 | 94 5 | 49.3 0.1 | 3.5 0.4 | NNE | 12 | 5.0 0.7 | 0.00 | 0.00 | 52.0 1.9 | 50.7 1.3 |
| Geyserville-East (Ranch 40) | 5/5/26 | 0300 | 50.0 0.5 | 98 5 | 49.4 1.1 | 4.1 0.7 | NNW | 332 | 10.4 5.1 | 0.00 | 0.00 | 50.8 1.3 | 49.9 0.2 |
| N Chalk Hill Rd (Ranch 63) | 5/5/26 | 0300 | 49.7 2.0 | 100 14 | 49.7 2.0 | 0.9 0.1 | ESE | 114 | 2.2 0.7 | 0.00 | 0.00 | 50.2 3.1 | 49.7 2.0 |
| Cloverdale-East (Ranch 83) | 5/5/26 | 0300 | 51.7 2.0 | - | - | 0.7 0.0 | NNE | 22 | 2.7 0.2 | 0.00 | 0.00 | 53.1 3.1 | 51.6 2.1 |
| Crazy Creek Ranch | 5/5/26 | 0300 | 53.0 0.9 | 91 2 | 50.5 1.6 | 1.8 1.3 | WNW | 298 | 5.4 3.8 | 0.00 | 0.00 | 53.8 0.7 | 52.9 0.7 |
| Lytton East (Hill 5) | 5/5/26 | 0300 | 52.2 0.7 | 88 1 | 48.8 0.3 | 4.0 0.5 | NW | 323 | 7.6 1.8 | 0.00 | 0.01 | 52.7 0.7 | 51.9 0.6 |
| Lytton East (Shop Hill Bottom) | 5/5/26 | 0300 | 51.9 0.2 | 90 2 | 49.1 0.8 | 1.7 0.6 | WNW | 301 | 3.3 1.5 | 0.00 | 0.00 | 53.0 0.8 | 51.9 0.2 |
| Lytton West Hill (23PS) | 5/5/26 | 0300 | 52.6 0.6 | 94 5 | 51.0 2.0 | 0.8 1.6 | ESE | 111 | 2.4 2.2 | 0.00 | 0.00 | 53.7 0.5 | 52.5 0.6 |
| Lytton West Lower (Lew 6) | 5/5/26 | 0300 | 52.1 0.0 | 92 4 | 49.9 1.2 | 1.4 0.4 | N | 351 | 2.7 1.1 | 0.00 | 0.00 | 53.4 0.8 | 52.0 0.3 |
| Whitton Ranch (201e) | 5/5/26 | 0300 | 51.9 0.3 | 92 3 | 49.7 1.2 | 1.2 0.1 | NW | 313 | 3.6 0.6 | 0.00 | 0.00 | 53.2 1.2 | 51.8 0.5 |
| Upper Dry Creek Valley | 5/5/26 | 0200 | 53.3 1.3 | 91 9 | 50.7 1.5 | 1.0 0.9 | N | 353 | 4.2 0.9 | 0.00 | 0.01 | 53.6 1.5 | 53.2 1.3 |
| Big River | 5/5/26 | 0300 | 52.7 0.0 | 96 9 | 51.7 2.6 | 0.8 1.2 | WSW | 253 | 3.2 0.6 | 0.00 | 0.00 | 53.0 0.8 | 52.6 0.0 |
| Max | 53.3 | 100 | 52.8 | 9.0 | - | 17.3 | 0.00 | 0.05 | 54.0 | 53.2 | ||
| Avg | 51.7 | 94 | 50.0 | 2.2 | - | 5.0 | 0.00 | - | - | - | ||
| Min | 45.5 | 86 | 45.5 | 0.4 | - | 2.2 | 0.00 | 0.00 | 46.1 | 45.3 |
| Station | Date | Time | Temp (°F) | RH (%) | Dew Pt (°F) | Wind Spd (mph) | Wind Dir (°) | Wind Gust (mph) | Latest Rain (In) | Daily Rain (In) | Daily Max Temp (°F) | Daily Min Temp (°F) |
|---|---|---|---|---|---|---|---|---|---|---|---|---|
| Windsor-NW (Ranch 8) | 5/5/26 | 0300 | 52.7 1.9 | 86 2 | 48.6 2.6 | 2.3 1.9 | ESE | 104 | 5.2 2.7 | 0.01 | 0.01 | 53.0 0.5 | 52.3 1.5 |
| Windsor-East (Ranch 16) | 5/5/26 | 0300 | 52.5 2.5 | 95 2 | 51.2 3.1 | 1.9 0.7 | SE | 133 | 4.5 1.9 | 0.00 | 0.03 | 52.9 2.2 | 52.5 2.6 |
| Mark West-North (Ranch 14) | 5/5/26 | 0300 | 52.4 2.1 | 96 4 | 51.4 3.3 | 1.1 0.9 | NW | 322 | 3.3 1.8 | 0.00 | 0.05 | 52.7 0.9 | 52.2 2.1 |
| Windsor-SE (Silk Rd) | 5/5/26 | 0300 | 52.5 5.7 | 98 2 | 51.8 6.2 | 1.2 1.2 | SE | 135 | 2.8 2.4 | 0.00 | 0.01 | 52.8 1.9 | 52.4 5.8 |
| Fulton-NW (Ranch 5) | 5/5/26 | 0300 | 52.4 3.8 | 100 4 | 52.4 5.0 | 0.9 0.3 | ESE | 113 | 2.7 0.9 | 0.00 | 0.04 | 52.9 2.5 | 52.3 4.0 |
| Bisordi (Fulton) | 5/5/26 | 0300 | 52.6 3.4 | 95 2 | 51.3 4.0 | 0.9 0.0 | SE | 143 | 3.2 0.9 | 0.00 | 0.04 | 53.1 1.8 | 52.6 3.4 |
| Windsor-South (Laughlin Rd) | 5/4/26 | 1515 | 70.3 | 46 | 48.5 | - | - | - | 0.00 | - | 71.4 | 51.0 |
| Fulton-SE (Barnes Rd) | 5/5/26 | 0300 | 52.8 4.7 | 95 4 | 51.4 5.7 | 0.0 0.0 | N | 0 | 0.0 0.0 | 0.00 | 0.07 | 53.4 0.8 | 52.8 4.7 |
| Fulton-SW (Ranch 21) | 5/5/26 | 0300 | 52.2 3.6 | 0 94 | -60.4 107.3 | 2.6 0.0 | S | 176 | 4.6 1.0 | 0.00 | 0.04 | 52.4 2.6 | 52.1 3.6 |
| NW Santa Rosa (Piner Road) | 5/5/26 | 0300 | 52.2 3.8 | 100 0 | 52.2 3.8 | 1.5 1.5 | SSW | 208 | 3.4 2.8 | 0.00 | 0.00 | 52.5 2.5 | 52.1 4.2 |
| River Rd South (Denner Ranch) | 5/5/26 | 0300 | 52.2 6.2 | 0 0 | -66.3 3.8 | 4.1 3.1 | SSE | 147 | 5.9 3.9 | - | - | 52.6 3.0 | 51.7 6.2 |
| West Santa Rosa (LOV Vineyard) | 5/5/26 | 0300 | 52.2 4.4 | 96 1 | 51.2 4.7 | 2.3 2.3 | SSW | 204 | 4.2 4.2 | 0.00 | 0.04 | 52.8 3.2 | 52.2 4.5 |
| Guerneville Rd (Prokopakis) | 5/5/26 | 0300 | 53.1 4.8 | 97 1 | 52.2 5.1 | - | - | - | 0.00 | 0.04 | 53.3 2.9 | 53.0 4.9 |
| SunnyView Vineyard (SCWC) | 5/5/26 | 0300 | 51.9 6.4 | 96 1 | 50.8 6.7 | 0.8 0.8 | SSW | 210 | 2.8 2.8 | 0.00 | 0.05 | 52.3 4.1 | 51.9 6.9 |
| Guerneville Rd West (Balletto) | 5/5/26 | 0300 | 52.5 5.8 | 98 3 | 52.0 6.5 | 1.8 1.8 | S | 186 | 3.6 3.6 | 0.00 | 0.04 | 53.2 3.7 | 52.4 6.1 |
| Sanchietti Ranch | 5/5/26 | 0300 | 53.4 4.4 | 96 0 | 52.2 4.5 | 1.3 0.3 | SSW | 203 | 3.5 0.2 | 0.00 | 0.07 | 53.7 3.9 | 53.3 4.3 |
| Occidental Rd (Sebastopol) | 5/5/26 | 0300 | 52.1 6.0 | 100 0 | 52.1 6.0 | 1.1 0.5 | S | 183 | 2.6 0.2 | 0.00 | 0.04 | 52.7 4.9 | 52.0 6.1 |
| Harper's Rest (Windsor-West) | 5/5/26 | 0245 | 51.2 5.4 | 96 2 | 50.1 6.0 | 0.4 0.8 | ESE | 122 | 1.7 0.2 | 0.00 | 0.02 | 51.6 0.6 | 51.1 5.6 |
| Lower Westside Rd (Ranch 12) | 5/5/26 | 0300 | 52.5 3.8 | 97 5 | 51.7 5.1 | 0.3 0.2 | NE | 50 | 1.1 0.2 | 0.00 | 0.01 | 52.8 0.3 | 52.2 4.2 |
| Guerneville (Laughlin Rd) | 5/5/26 | 0300 | 52.1 3.1 | 97 4 | 51.2 4.1 | 0.3 0.2 | SSE | 155 | 1.6 0.7 | 0.00 | 0.01 | 52.6 0.4 | 52.1 3.1 |
| Korbel (Winery) | 5/5/26 | 0300 | 52.6 2.4 | 96 3 | 51.6 3.2 | 0.0 0.0 | N | 0 | 0.0 0.0 | 0.00 | 0.00 | 53.1 0.4 | 52.6 2.4 |
| Forestville (Shone Farms) | 5/5/26 | 0300 | 52.2 3.4 | 95 1 | 50.9 3.6 | 2.1 1.6 | SSW | 201 | 4.9 2.2 | 0.00 | 0.01 | 54.9 2.0 | 51.1 3.1 |
| Forestville-NE (Ranch 30) | 5/5/26 | 0300 | 51.6 5.0 | 97 0 | 50.8 4.9 | 2.7 2.5 | WSW | 256 | 6.4 5.6 | 0.00 | 0.02 | 51.8 1.8 | 51.5 5.0 |
| Foggy Bend (Ranch 41) | 5/5/26 | 0300 | 53.1 5.2 | 92 2 | 51.0 4.7 | 3.0 2.9 | WSW | 244 | 5.3 4.5 | 0.00 | 0.02 | 53.3 1.5 | 53.0 5.3 |
| Last Stop | 5/5/26 | 0300 | 52.4 8.4 | 92 3 | 50.3 7.5 | 0.6 0.6 | W | 277 | 2.7 2.0 | 0.00 | 0.02 | 52.6 5.0 | 52.3 8.5 |
| Green Valley Vineyard | 5/5/26 | 0300 | 51.6 5.5 | 94 1 | 50.0 5.1 | 0.6 0.4 | SW | 230 | 2.4 1.1 | 0.00 | 0.03 | 52.2 3.9 | 51.0 5.1 |
| Park Royal | 5/5/26 | 0300 | 51.9 4.2 | 99 5 | 51.5 5.4 | - | - | - | 0.00 | 0.06 | 52.4 2.8 | 51.8 4.6 |
| Merino | 5/5/26 | 0300 | 52.2 4.8 | 100 0 | 52.2 4.8 | 0.8 0.1 | S | 184 | 2.3 0.6 | 0.00 | 0.06 | 52.6 4.3 | 52.2 5.0 |
| Green Valley (Sanchietti) | 5/5/26 | 0300 | 52.9 7.8 | - | - | - | - | - | - | - | 53.3 3.6 | 52.6 7.9 |
| Keefer Ranch (Green Valley) | 5/5/26 | 0300 | 52.4 7.5 | 96 1 | 51.3 7.6 | - | - | - | 0.00 | 0.02 | 52.7 4.7 | 52.2 7.2 |
| Graton-West (Dutton Ranch) | 5/5/26 | 0300 | 52.4 6.2 | 100 0 | 52.4 6.2 | 1.0 0.8 | SSE | 157 | 2.2 1.4 | 0.00 | 0.03 | 53.1 3.5 | 52.2 6.3 |
| Graton-South (Mill Station Rd) | 5/5/26 | 0300 | 51.9 5.8 | 97 2 | 51.1 6.2 | 0.0 0.0 | SE | 143 | 0.7 0.7 | 0.00 | 0.03 | 52.8 4.3 | 51.7 6.4 |
| Occidental (Horseshoe Bend) | 5/5/26 | 0300 | 50.4 2.8 | 98 3 | 49.8 3.6 | - | - | - | 0.00 | 0.04 | 50.6 2.0 | 50.3 3.0 |
| Sexton Valley (Jacqueline's Blk) | 5/5/26 | 0300 | 52.3 6.4 | 97 0 | 51.4 6.4 | 1.2 0.9 | SW | 226 | 3.8 2.3 | 0.00 | 0.04 | 52.6 5.1 | 52.2 6.4 |
| Sebastopol Hills (Burnside Rd) | 5/5/26 | 0300 | 51.1 1.6 | 99 2 | 50.8 2.3 | 2.8 0.7 | WSW | 248 | 5.4 1.5 | 0.00 | 0.00 | 51.2 1.4 | 51.0 1.8 |
| Pleasant Hill | 5/5/26 | 0300 | 51.2 3.1 | 96 3 | 50.0 3.9 | 2.4 2.2 | WSW | 239 | 5.6 4.2 | 0.00 | 0.01 | 51.3 2.2 | 51.0 3.4 |
| Seaview/Fort Ross (Hirsch) | 5/5/26 | 0300 | 47.0 0.6 | 97 4 | 46.2 1.6 | 3.4 3.1 | WNW | 286 | 6.4 5.1 | 0.00 | 0.00 | 47.2 0.8 | 46.6 0.4 |
| Max | 53.4 | 100 | 52.4 | 4.1 | - | 6.4 | 0.01 | 0.07 | 54.9 | 53.3 | ||
| Avg | 52.1 | 91 | 44.5 | 1.5 | - | 3.4 | 0.00 | - | - | - | ||
| Min | 47.0 | 0 | -66.3 | 0.0 | - | 0.0 | 0.00 | 0.00 | 47.2 | 46.6 |
| Station | Date | Time | Temp (°F) | RH (%) | Dew Pt (°F) | Wind Spd (mph) | Wind Dir (°) | Wind Gust (mph) | Latest Rain (In) | Daily Rain (In) | Daily Min Temp (°F) | Daily Max Temp (°F) |
|---|---|---|---|---|---|---|---|---|---|---|---|---|
| Upper Rincon Valley | 5/5/26 | 0300 | 49.4 3.6 | 98 2 | 48.9 4.1 | 0.6 0.2 | SSW | 204 | 2.4 0.6 | 0.00 | 0.00 | 49.4 3.6 | 49.9 0.7 |
| Lower Bennett Valley | 5/5/26 | 0300 | 51.1 6.0 | 100 0 | 51.1 6.0 | 0.4 0.7 | N | 353 | 1.4 0.9 | 0.00 | 0.01 | 51.0 6.3 | 51.6 1.7 |
| Kenwood (Wildwood) | 5/5/26 | 0300 | 51.8 4.3 | 95 0 | 50.5 4.2 | 0.5 0.1 | NE | 34 | 2.3 0.1 | 0.00 | 0.01 | 51.7 4.6 | 51.9 0.9 |
| Crane Creek (Ranch 62) | 5/5/26 | 0300 | 52.0 5.0 | 98 4 | 51.5 6.0 | 0.3 0.7 | SE | 132 | 1.4 1.0 | 0.00 | 0.01 | 51.8 5.2 | 52.4 3.5 |
| Rohnert Park-West (Stony Point) | 5/5/26 | 0300 | 52.4 6.9 | 97 0 | 51.5 7.0 | 2.9 2.9 | WSW | 242 | 6.6 6.6 | 0.00 | 0.00 | 52.3 6.8 | 52.5 5.4 |
| Rice-Spivak Vineyard | 5/5/26 | 0300 | 52.1 9.6 | - | - | - | - | - | - | - | 51.8 9.8 | 52.2 2.3 |
| Cartograph Wines Base | 5/5/26 | 0300 | 52.0 1.6 | 97 0 | 51.2 1.8 | 4.9 3.1 | SW | 221 | 11.2 6.1 | 0.00 | 0.01 | 51.6 1.4 | 52.0 0.5 |
| Cartograph Wines Remote | 5/5/26 | 0300 | 52.2 4.9 | - | - | - | - | - | - | - | 51.8 4.6 | 52.2 2.9 |
| Penngrove (Asellus) | 5/5/26 | 0300 | 51.7 6.0 | 96 1 | 50.8 6.2 | 0.1 0.8 | NNE | 15 | 1.4 0.3 | 0.00 | 0.00 | 51.6 6.4 | 52.1 2.8 |
| Sonoma Valley (Bedrock) | 5/5/26 | 0300 | 51.2 6.1 | 96 2 | 50.1 6.5 | - | - | - | 0.00 | 0.02 | 50.7 6.2 | 51.3 2.8 |
| Sonoma-West (Arnold) | 5/5/26 | 0315 | 52.7 6.2 | 92 2 | 50.4 5.4 | 2.6 1.4 | W | 273 | 6.4 3.7 | 0.00 | 0.00 | 52.3 5.9 | 52.7 0.2 |
| Sonoma Valley HS | 5/5/26 | 0300 | 52.1 5.2 | 100 3 | 52.1 5.9 | 0.3 0.2 | N | 353 | 1.9 1.1 | 0.00 | 0.00 | 52.0 5.4 | 52.5 1.0 |
| Sonoma East (Bundschu01) | 5/5/26 | 0300 | 52.4 7.7 | 94 1 | 50.8 7.9 | 1.2 0.9 | SE | 145 | 2.4 1.3 | 0.00 | 0.02 | 52.3 8.0 | 52.8 4.9 |
| Sonoma-SE (Napoli) | 5/5/26 | 0300 | 52.5 7.1 | 94 2 | 50.9 7.5 | 1.0 1.0 | WSW | 244 | 3.8 3.8 | 0.00 | 0.02 | 52.2 7.2 | 52.8 3.3 |
| Schellville (Sasaki) | 2/7/26 | 1900 | 53.4 2.2 | 88 10 | 49.9 1.0 | 3.3 1.8 | SW | 225 | 5.8 4.0 | 0.00 | 0.00 | 47.0 0.8 | 62.8 8.4 |
| Petaluma (Ranch 10) | 5/5/26 | 0300 | 52.8 5.9 | 96 2 | 51.6 6.5 | 1.8 1.8 | W | 280 | 4.0 4.0 | 0.00 | 0.02 | 52.4 5.9 | 52.9 0.8 |
| Carneros (Ranch 71) | 5/5/26 | 0300 | 51.5 1.9 | 97 6 | 50.8 3.5 | 4.5 3.0 | W | 260 | 8.0 4.9 | 0.00 | 0.03 | 51.4 2.0 | 51.8 0.6 |
| Ricci Vineyards (Carneros) | 5/5/26 | 0300 | 52.3 1.5 | 94 4 | 50.8 2.5 | 3.5 1.6 | WNW | 291 | 6.4 1.7 | 0.00 | 0.04 | 52.1 1.7 | 52.7 0.8 |
| Carneros Upper (Ranch 81) | 5/5/26 | 0300 | 51.6 1.8 | 1 91 | -54.3 101.8 | 6.1 0.5 | WSW | 256 | 9.2 2.3 | - | - | 51.4 1.6 | 52.0 0.2 |
| Carneros Lower (Ranch 81) | 5/5/26 | 0245 | 52.0 2.2 | 0 92 | -64.5 112.1 | 0.4 0.8 | SSE | 166 | 2.8 0.3 | 0.00 | 0.00 | 52.0 2.2 | 52.6 0.9 |
| Max | 52.8 | 100 | 52.1 | 6.1 | - | 11.2 | 0.00 | 0.04 | 52.4 | 52.9 | ||
| Avg | 51.9 | 85 | 37.9 | 1.9 | - | 4.5 | 0.00 | - | - | - | ||
| Min | 49.4 | 0 | -64.5 | 0.1 | - | 1.4 | 0.00 | 0.00 | 49.4 | 49.9 |